[[{"header":{"parameterUnit":"m.s-1","parameterCategory":1,"la1":30.2992,"la2":30.254,"lo1":-89.0895,"lo2":-89.0443,"dy":0.0025,"dx":0.0025,"nx":19,"ny":19,"refTime":"2026-04-03T09:00:00:Z","depth":0,"parameterNumber":2,"parameterNumberName":"U-component_of_WINDS"},"data":[0,0,0,-3.8626,-3.8629,-3.8809,-3.8809,-3.9028,-3.903,0,0,0,0,0,0,0,0,0,0,0,-3.8567,-3.8568,-3.8626,-3.863,-3.8809,-3.8809,-3.9027,-3.903,0,0,0,0,0,0,0,0,0,0,0,-3.8566,-3.8568,-3.8569,-3.863,-3.8808,-3.8809,-3.9027,-3.8896,0,0,0,0,0,0,0,0,0,0,-3.8724,-3.8663,-3.8567,-3.8569,-3.8631,-3.8808,-3.881,-3.8889,-3.8904,-3.8942,0,-3.8975,0,-3.9006,-3.9044,-3.9044,0,0,0,-3.8634,-3.8651,-3.8705,-3.8569,-3.8633,-3.8808,-3.8729,-3.8898,-3.8914,-3.8961,-3.8978,-3.8987,-3.9009,-3.9045,-3.9046,-3.9253,-3.9254,0,0,-3.8624,-3.8595,-3.8694,-3.8715,-3.8687,-3.8723,-3.8735,-3.8908,-3.8924,-3.8979,-3.8992,-3.9013,-3.9046,-3.9048,-3.9252,-3.9253,0,0,0,-3.8593,-3.8588,-3.8638,-3.8706,-3.8739,-3.8728,-3.8741,-3.8916,-3.8935,-3.8994,-3.9016,-3.9047,-3.905,-3.9252,-3.9253,-3.926,0,0,0,-3.8587,-3.857,-3.8634,-3.8618,-3.8735,-3.883,-3.8746,-3.8923,-3.8944,-3.9014,-3.9048,-3.9052,-3.9251,-3.9252,-3.9258,-3.9268,0,0,0,-3.8557,-3.8567,-3.859,-3.8616,-3.8692,-3.8828,-3.8857,-3.8928,-3.8956,-3.9044,-3.9053,-3.925,-3.9252,-3.9257,-3.9265,-3.9313,0,0,0,-3.8516,-3.8595,-3.859,-3.8687,-3.869,-3.8832,-3.8856,-3.8963,-3.904,-3.9049,-3.9251,-3.9253,-3.9256,-3.9264,-3.931,-3.9345,-3.9358,0,0,-3.86,-3.8604,-3.8664,-3.8664,-3.8799,-3.8807,-3.8944,-3.9042,-3.9077,-3.9192,-3.9198,-3.9259,-3.9265,-3.9312,-3.9442,-3.9451,0,0,0,-3.868,-3.8722,-3.8764,-3.8836,-3.8913,-3.8979,-3.906,-3.9096,-3.9195,-3.913,-3.9291,-3.9296,-3.9324,-3.9342,-3.935,-3.9376,-3.926,-3.926,-3.926,-3.8755,-3.8796,-3.8896,-3.8959,-3.9028,-3.911,-3.917,-3.9233,-3.9255,-3.9292,-3.9325,-3.9399,-3.9419,-3.9425,-3.9452,-3.9349,-3.935,-3.935,-3.935,-3.8879,-3.8944,-3.8971,-3.9077,-3.9121,-3.9211,-3.9294,-3.9306,-3.9395,-3.9377,-3.9405,-3.9379,-3.9435,-3.946,-3.9351,-3.935,-3.935,-3.935,-3.935,-3.893,-3.8968,-3.9012,-3.9119,-3.9198,-3.926,-3.9344,-3.9382,-3.9417,-3.9444,-3.9482,-3.9482,-3.9485,-3.946,-3.9461,-3.9461,-3.9461,-3.9461,-3.9462,-3.8965,-3.9014,-3.908,-3.9169,-3.922,-3.9292,-3.9376,-3.9427,-3.9493,-3.9513,-3.9513,-3.9529,-3.9434,-3.9407,-3.9466,-3.9465,-3.9464,-3.9464,-3.9464,-3.9071,-3.9053,-3.9155,-3.9206,-3.9314,-3.9388,-3.9436,-3.9536,-3.9584,-3.9625,-3.9637,-3.956,-3.9567,-3.9561,-3.9539,-3.9629,-3.9629,-3.9629,-3.9629,-3.9112,-3.912,-3.9233,-3.9311,-3.9393,-3.9446,-3.9561,-3.9627,-3.9693,-3.9726,-3.9719,-3.9694,-3.9686,-3.9698,-3.9689,-3.9668,-3.9789,-3.9789,-3.9789,-3.9178,-3.9196,-3.9285,-3.935,-3.9437,-3.951,-3.9619,-3.9708,-3.978,-3.9797,-3.9751,-3.9744,-3.9705,-3.969,-3.9702,-3.9687,-3.9651,0,0]},{"header":{"parameterUnit":"m.s-1","parameterCategory":1,"la1":30.2992,"la2":30.254,"lo1":-89.0895,"lo2":-89.0443,"dy":0.0025,"dx":0.0025,"nx":19,"ny":19,"refTime":"2026-04-03T09:00:00:Z","depth":0,"parameterNumber":3,"parameterNumberName":"V-component_of_WINDS"},"data":[0,0,0,4.5543,4.5544,4.5625,4.5625,4.5727,4.5728,0,0,0,0,0,0,0,0,0,0,0,4.552,4.5521,4.5543,4.5545,4.5625,4.5625,4.5727,4.5728,0,0,0,0,0,0,0,0,0,0,0,4.552,4.5521,4.5522,4.5545,4.5625,4.5625,4.5727,4.5666,0,0,0,0,0,0,0,0,0,0,4.5588,4.5569,4.5521,4.5522,4.5545,4.5625,4.5625,4.5663,4.567,4.5691,0,4.5712,0,4.5722,4.5735,4.5736,0,0,0,4.5543,4.5564,4.5584,4.5522,4.5546,4.5625,4.5588,4.5667,4.5675,4.57,4.5714,4.5718,4.5724,4.5736,4.5736,4.587,4.5871,0,0,4.5539,4.5535,4.5579,4.5589,4.5579,4.5586,4.5591,4.5671,4.5685,4.5714,4.572,4.5726,4.5737,4.5737,4.587,4.587,0,0,0,4.5527,4.5532,4.5551,4.5585,4.56,4.5588,4.5594,4.5682,4.5688,4.5721,4.5727,4.5737,4.5738,4.5869,4.587,4.5902,0,0,0,4.5524,4.5525,4.5549,4.5547,4.5598,4.5642,4.5602,4.5682,4.5692,4.5726,4.5737,4.5739,4.5868,4.5869,4.59,4.5918,0,0,0,4.5515,4.5524,4.5536,4.5547,4.5582,4.5641,4.5652,4.5685,4.5695,4.5736,4.574,4.5868,4.5869,4.5897,4.5914,4.5952,0,0,0,4.5503,4.5562,4.5537,4.5606,4.5581,4.5661,4.5651,4.571,4.5749,4.5738,4.5868,4.587,4.5897,4.5912,4.595,4.5984,4.5998,0,0,4.5576,4.5571,4.5612,4.5592,4.5675,4.5649,4.5737,4.5774,4.578,4.5839,4.5843,4.59,4.5914,4.5952,4.6078,4.6089,0,0,0,4.5634,4.5664,4.5686,4.5724,4.5755,4.5784,4.5808,4.5822,4.5873,4.581,4.5925,4.5933,4.5955,4.5972,4.5981,4.6001,4.5877,4.5877,4.5877,4.5732,4.5739,4.5807,4.5823,4.5859,4.5885,4.5915,4.5938,4.5932,4.5959,4.5976,4.6053,4.6072,4.6079,4.61,4.5995,4.5995,4.5995,4.5995,4.5841,4.5884,4.5876,4.594,4.5946,4.5998,4.6025,4.6019,4.6069,4.6039,4.606,4.6027,4.6091,4.6109,4.5998,4.5997,4.5997,4.5997,4.5997,4.5906,4.5928,4.5945,4.6001,4.6043,4.6056,4.6104,4.6107,4.611,4.613,4.6149,4.6149,4.6149,4.6139,4.6139,4.614,4.614,4.614,4.614,4.5967,4.5986,4.6027,4.6067,4.6091,4.6124,4.6151,4.6175,4.6202,4.6201,4.6201,4.6192,4.6097,4.6073,4.6144,4.6144,4.6143,4.6143,4.6142,4.6075,4.6052,4.6116,4.6141,4.6187,4.6229,4.6232,4.6281,4.6301,4.6325,4.6313,4.6241,4.6236,4.6228,4.6209,4.6311,4.6311,4.6311,4.6311,4.6131,4.6129,4.6196,4.6236,4.6275,4.6285,4.6356,4.6377,4.6395,4.6408,4.6393,4.6367,4.636,4.6359,4.6348,4.633,4.6461,4.6461,4.6461,4.6198,4.62,4.6261,4.628,4.6317,4.6348,4.6415,4.646,4.6475,4.6468,4.6418,4.6412,4.637,4.6356,4.6347,4.6331,4.6297,0,0]}]]